SHENZHOU-23 (SZ-23)

Last updated on Sun Jun 21 2026 00:02:05 GMT+0000 (Coordinated Universal Time)

1 69180U 26113A 26170.72834613 .00019835 00000+0 23343-3 0 9990 2 69180 41.4696 306.5363 0007349 99.2772 260.8898 15.60907257293648
UTC large
Height (km)
Speed (km/s)
/
Latitude / Longitude
Inclination (degrees)
Orbital Period (minutes)
Azimuth
Elevation
Range (km)
Doppler Factor

Next 0 passes for location: London (51.5072 / 0.1276)

No passes found over London.
SHENZHOU-23 (SZ-23)